Simultaneous Nadir Overpasses (SNOs) Predictions

Prediction of SNOs between GOES-16 and NPP Satellite Orbit:

Table of predicted SNOs for the next 14.0 days since TLE Epoch: 1/20/2024
Index Date Time (GOES-16) GOES-16 Lat,Lon NPP Lat,Lon Distance(km) Time Diff (sec)
1 01/21/2024 06:33:01 -0.04, -75.21 0.26, -76.53 150.41 80
2 01/22/2024 06:11:37 -0.04, -75.21 -0.75, -72.00 366.21 80
3 01/23/2024 18:33:33 0.03, -75.22 -0.45, -77.30 237.67 80
4 01/24/2024 18:17:28 0.03, -75.22 0.57, -72.77 279.52 80
5 01/26/2024 06:39:17 -0.03, -75.24 0.59, -78.04 319.59 80
6 01/27/2024 06:17:52 -0.03, -75.25 -0.42, -73.51 197.85 80
7 01/28/2024 18:39:48 0.03, -75.27 -0.76, -78.82 404.70 80
8 01/29/2024 18:23:44 0.03, -75.28 0.26, -74.29 113.48 80
9 01/31/2024 06:45:32 -0.03, -75.31 0.89, -79.56 483.69 80
10 02/01/2024 06:24:07 -0.03, -75.33 -0.07, -75.02 34.71 80
